Roseau, MN

7:37 AM CDT on September 25, 2017 (GMT -0500)
Roseau Municipal-Billberg

Weather History for KROX - December, 2013

Change the Weather History Date:

Thursday, December 26, 2013

  Actual Average Record
Temperature  
Mean Temperature 6 °F -  
Max Temperature 19 °F 12 °F 46 °F (2011)
Min Temperature -5 °F -8 °F -38 °F (1990)
Degree Days  
Heating Degree Days 59    
Moisture  
Dew Point 0 °F    
Average Humidity 77    
Maximum Humidity 85    
Minimum Humidity 71    
Precipitation  
Precipitation 0.00 in - - ()
Sea Level Pressure  
Sea Level Pressure 30.04 in    
Wind  
Wind Speed 2 mph (SSE)    
Max Wind Speed 14 mph    
Max Gust Speed -    
Visibility 10 miles    
Events      
Averages and records for this station are not official NWS values.
T = Trace of Precipitation, MM = Missing Value Source: NWS Daily Summary

Daily Weather History Graph

Daily Weather History Graph

Search for Another Location

Airport or City:

Trip Planner

Search our weather history database for the weather conditions in past years. The results will help you decide how hot, cold, wet, or windy it might be!

Date:

Astronomy

Dec. 26, 2013 Rise Set
Actual Time 8:15 AM CST 4:31 PM CST
Civil Twilight 7:38 AM CST 5:08 PM CST
Nautical Twilight 6:57 AM CST 5:49 PM CST
Astronomical Twilight 6:19 AM CST 6:27 PM CST
Moon 1:22 AM CST (12/26) 12:28 PM CST (12/26)
Length of Visible Light 9h 30m
Length of Day
8h 16m
Last Quarter, 38% of the Moon is Illuminated
Dec 26
Last Quarter
Jan 1
New
Jan 7
First Quarter
Jan 15
Full
Jan 23
Last Quarter

Hourly Weather History & Observations

Time (CST) Temp. Windchill Dew Point Humidity Pressure Visibility Wind Dir Wind Speed Gust Speed Precip Events Conditions
12:14 AM 5.0 °F - -0.4 °F 78% 30.06 in 10.0 mi Calm Calm - N/A   Overcast
12:34 AM 5.0 °F -2.1 °F -0.4 °F 78% 30.05 in 10.0 mi NW 3.5 mph - N/A   Overcast
12:54 AM 5.0 °F -2.1 °F -0.4 °F 78% 30.03 in 10.0 mi North 3.5 mph - N/A   Overcast
1:14 AM 3.2 °F - -0.4 °F 85% 30.03 in 10.0 mi Calm Calm - N/A   Overcast
1:34 AM 3.2 °F - -2.2 °F 78% 30.03 in 10.0 mi Calm Calm - N/A   Overcast
1:54 AM 3.2 °F - -2.2 °F 78% 30.04 in 10.0 mi Calm Calm - N/A   Overcast
2:14 AM 3.2 °F - -0.4 °F 85% 30.05 in 10.0 mi Calm Calm - N/A   Overcast
2:34 AM 3.2 °F - -2.2 °F 78% 30.05 in 10.0 mi Calm Calm - N/A   Overcast
2:55 AM 3.2 °F - -2.2 °F 78% 30.05 in 10.0 mi Calm Calm - N/A   Overcast
3:14 AM 3.2 °F - -2.2 °F 78% 30.05 in 10.0 mi Calm Calm - N/A   Overcast
3:34 AM 1.4 °F - -4.0 °F 78% 30.05 in 10.0 mi Calm Calm - N/A   Scattered Clouds
3:54 AM 1.4 °F - -4.0 °F 78% 30.05 in 10.0 mi Calm Calm - N/A   Clear
4:14 AM -2.2 °F - -7.6 °F 78% 30.04 in 10.0 mi Calm Calm - N/A   Clear
4:34 AM -0.4 °F - -5.8 °F 78% 30.04 in 10.0 mi Calm Calm - N/A   Clear
4:54 AM -2.2 °F - -7.6 °F 78% 30.03 in 10.0 mi Calm Calm - N/A   Clear
5:14 AM -2.2 °F - -9.4 °F 71% 30.04 in 10.0 mi Calm Calm - N/A   Clear
5:35 AM -2.2 °F - -7.6 °F 78% 30.04 in 10.0 mi Calm Calm - N/A   Clear
5:54 AM -4.0 °F - -9.4 °F 78% 30.04 in 10.0 mi Calm Calm - N/A   Clear
6:14 AM -5.8 °F - -9.4 °F 84% 30.04 in 10.0 mi Calm Calm - N/A   Clear
6:34 AM -4.0 °F - -9.4 °F 78% 30.04 in 7.0 mi Calm Calm - N/A   Clear
6:54 AM -2.2 °F - -9.4 °F 71% 30.04 in 10.0 mi Calm Calm - N/A   Clear
7:14 AM -5.8 °F -14.5 °F -9.4 °F 84% 30.03 in 10.0 mi East 3.5 mph - N/A   Clear
7:34 AM -4.0 °F - -9.4 °F 78% 30.04 in 10.0 mi Calm Calm - N/A   Mostly Cloudy
7:54 AM -2.2 °F - -7.6 °F 78% 30.04 in 10.0 mi Calm Calm - N/A   Overcast
8:14 AM -2.2 °F - -7.6 °F 78% 30.05 in 10.0 mi Calm Calm - N/A   Overcast
8:34 AM -0.4 °F - -5.8 °F 78% 30.05 in 10.0 mi Calm Calm - N/A   Overcast
8:54 AM -0.4 °F - -5.8 °F 78% 30.06 in 10.0 mi Calm Calm - N/A   Mostly Cloudy
9:15 AM 1.4 °F - -4.0 °F 78% 30.06 in 10.0 mi Calm Calm - N/A   Mostly Cloudy
9:34 AM 1.4 °F - -4.0 °F 78% 30.07 in 10.0 mi Calm Calm - N/A   Mostly Cloudy
9:54 AM 1.4 °F -6.2 °F -2.2 °F 85% 30.06 in 10.0 mi SE 3.5 mph - N/A   Mostly Cloudy
10:14 AM 1.4 °F - -2.2 °F 85% 30.07 in 10.0 mi Calm Calm - N/A   Scattered Clouds
10:34 AM 3.2 °F - -2.2 °F 78% 30.08 in 10.0 mi Calm Calm - N/A   Scattered Clouds
10:55 AM 3.2 °F - -2.2 °F 78% 30.08 in 10.0 mi Calm Calm - N/A   Scattered Clouds
11:14 AM 3.2 °F - -2.2 °F 78% 30.08 in 10.0 mi Calm Calm - N/A   Scattered Clouds
11:34 AM 5.0 °F - -0.4 °F 78% 30.06 in 10.0 mi Calm Calm - N/A   Scattered Clouds
11:55 AM 5.0 °F - -0.4 °F 78% 30.06 in 10.0 mi Calm Calm - N/A   Scattered Clouds
12:14 PM 6.8 °F - 1.4 °F 79% 30.06 in 10.0 mi Calm Calm - N/A   Mostly Cloudy
12:34 PM 6.8 °F - 1.4 °F 79% 30.07 in 10.0 mi Calm Calm - N/A   Mostly Cloudy
12:54 PM 6.8 °F - 1.4 °F 79% 30.06 in 10.0 mi Calm Calm - N/A   Mostly Cloudy
1:14 PM 8.6 °F - 1.4 °F 73% 30.05 in 10.0 mi Calm Calm - N/A   Mostly Cloudy
1:34 PM 8.6 °F - 1.4 °F 73% 30.05 in 10.0 mi Calm Calm - N/A   Overcast
1:54 PM 8.6 °F - 1.4 °F 73% 30.05 in 10.0 mi Calm Calm - N/A   Overcast
2:14 PM 8.6 °F - 3.2 °F 79% 30.05 in 10.0 mi Calm Calm - N/A   Mostly Cloudy
2:34 PM 8.6 °F - 1.4 °F 73% 30.05 in 10.0 mi Calm Calm - N/A   Clear
2:54 PM 8.6 °F - 1.4 °F 73% 30.05 in 10.0 mi Calm Calm - N/A   Clear
3:14 PM 8.6 °F - 1.4 °F 73% 30.05 in 10.0 mi Calm Calm - N/A   Scattered Clouds
3:34 PM 8.6 °F - 1.4 °F 73% 30.06 in 10.0 mi Calm Calm - N/A   Overcast
3:54 PM 8.6 °F - 3.2 °F 79% 30.06 in 10.0 mi Calm Calm - N/A   Overcast
4:14 PM 10.4 °F - 3.2 °F 73% 30.06 in 10.0 mi Calm Calm - N/A   Overcast
4:34 PM 10.4 °F - 3.2 °F 73% 30.07 in 10.0 mi Calm Calm - N/A   Overcast
4:54 PM 10.4 °F 4.0 °F 3.2 °F 73% 30.07 in 10.0 mi ESE 3.5 mph - N/A   Overcast
5:14 PM 10.4 °F - 3.2 °F 73% 30.07 in 10.0 mi Calm Calm - N/A   Overcast
5:34 PM 10.4 °F 2.2 °F 3.2 °F 73% 30.07 in 10.0 mi SE 4.6 mph - N/A   Overcast
5:54 PM 10.4 °F 2.2 °F 3.2 °F 73% 30.06 in 10.0 mi SE 4.6 mph - N/A   Overcast
6:14 PM 10.4 °F 2.2 °F 3.2 °F 73% 30.05 in 10.0 mi SE 4.6 mph - N/A   Overcast
6:34 PM 10.4 °F 2.2 °F 5.0 °F 79% 30.06 in 10.0 mi SSE 4.6 mph - N/A   Overcast
6:54 PM 12.2 °F 4.3 °F 6.8 °F 79% 30.06 in 10.0 mi SSE 4.6 mph - N/A   Overcast
7:14 PM 12.2 °F -0.2 °F 6.8 °F 79% 30.05 in 10.0 mi South 9.2 mph - N/A   Overcast
7:34 PM 14.0 °F 2.0 °F 6.8 °F 73% 30.04 in 10.0 mi South 9.2 mph - N/A   Overcast
7:54 PM 14.0 °F 5.1 °F 6.8 °F 73% 30.05 in 10.0 mi South 5.8 mph - N/A   Overcast
8:14 PM 14.0 °F 2.9 °F 6.8 °F 73% 30.04 in 10.0 mi South 8.1 mph - N/A   Overcast
8:34 PM 14.0 °F 1.2 °F 8.6 °F 79% 30.02 in 10.0 mi South 10.4 mph - N/A   Overcast
8:54 PM 15.8 °F 2.7 °F 8.6 °F 73% 30.01 in 10.0 mi South 11.5 mph - N/A   Overcast
9:14 PM 15.8 °F 3.4 °F 8.6 °F 73% 30.02 in 10.0 mi South 10.4 mph - N/A   Overcast
9:34 PM 15.8 °F 3.4 °F 10.4 °F 79% 30.01 in 10.0 mi South 10.4 mph - N/A   Overcast
9:54 PM 15.8 °F 2.1 °F 10.4 °F 79% 29.99 in 10.0 mi South 12.7 mph - N/A   Overcast
10:14 PM 15.8 °F 2.1 °F 10.4 °F 79% 29.99 in 10.0 mi South 12.7 mph - N/A   Overcast
10:34 PM 17.6 °F 4.3 °F 10.4 °F 73% 29.98 in 10.0 mi South 12.7 mph - N/A   Overcast
10:54 PM 17.6 °F 5.0 °F 12.2 °F 79% 29.97 in 10.0 mi South 11.5 mph - N/A   Overcast
11:14 PM 17.6 °F 3.7 °F 12.2 °F 79% 29.95 in 10.0 mi South 13.8 mph - N/A   Overcast
11:34 PM 17.6 °F 5.0 °F 12.2 °F 79% 29.95 in 10.0 mi South 11.5 mph - N/A   Overcast
11:54 PM 19.4 °F 6.6 °F 12.2 °F 74% 29.93 in 10.0 mi South 12.7 mph - N/A   Overcast